Temp
13 13 13 14 14 15 15 15 14 14 15 16 16 16 16 14 15 16 15 15 15 15 16 15 14 15 15 15 14 14 13 13 11 10 9 8 7 7
12 12 13 13 13 13 14 14 14 14 14 15 16 16 16 15 15 15 15 15 15 15 15 15 15 14 15 15 14 14 12 11 10 9 8 8 7 7
11 12 12 12 12 12 12 13 13 13 13 14 15 15 14 14 14 15 15 15 15 15 15 16 15 15 14 14 14 12 11 10 9 8 8 7 7 6
10 10 10 11 11 11 11 11 12 12 12 12 13 13 14 14 13 13 14 15 14 14 14 16 14 14 12 13 12 11 10 8 7 7 6 6 6 6
9 9 9 9 9 10 10 10 10 10 11 12 12 12 13 13 13 12 11 11 11 13 13 13 13 13 12 11 10 10 8 7 6 5 5 5 5 5
8 9 8 8 8 8 8 8 9 9 10 11 11 12 12 13 12 11 10 9 8 8 9 9 10 10 10 10 9 7 6 5 4 4 4 4 3 3
8 8 8 7 8 8 8 8 8 7 8 9 10 11 11 11 10 11 9 10 8 9 7 7 8 9 9 8 7 6 5 4 3 3 3 3 3 2
6 6 6 6 7 6 6 6 6 6 7 7 8 9 10 10 11 11 11 9 9 9 7 7 6 7 7 7 6 5 4 3 2 3 3 3 2 2
5 5 5 5 5 5 4 5 4 5 5 5 6 7 8 8 9 10 10 10 10 7 5 5 4 5 5 5 4 3 2 2 2 2 2 2 2 2
4 4 4 4 4 4 4 4 3 4 4 4 5 5 5 6 7 7 8 9 5 5 4 4 1 3 1 2 3 2 2 1 1 2 2 2 1 1
2 3 3 3 3 3 3 3 3 4 4 5 5 5 5 5 6 6 7 5 3 1 2 0 -1 -2 -1 -0 1 0 0 0 1 2 2 2 1 1
2 2 2 3 3 2 2 2 3 4 4 3 4 4 5 5 5 4 5 6 4 1 -0 0 -2 -1 -1 -2 -1 -1 -0 1 2 2 2 2 1 1
1 1 1 1 2 2 2 3 2 2 3 2 2 3 4 3 2 2 2 4 3 1 -0 1 -2 -3 -3 -3 -4 -2 -1 1 1 1 1 1 1 1
0 0 1 1 1 2 2 2 2 1 1 0 1 1 1 0 0 0 1 1 2 2 -0 -0 -2 -3 -4 -4 -3 -4 -2 -1 -0 0 0 -0 -0 0
0 -0 0 1 1 1 1 1 1 -0 -0 0 1 1 0 -1 -2 -2 -1 -2 -2 -3 -2 -1 -1 -3 -3 -4 -4 -5 -4 -3 -2 -2 -2 -2 -1 -2
-1 -1 -1 -0 -0 -0 -0 -0 -1 -1 -1 -0 -0 -1 -1 -2 -3 -3 -3 -3 -4 -5 -4 -3 -3 -3 -5 -4 -5 -6 -4 -5 -4 -4 -3 -3 -3 -2
-1 -2 -2 -2 -2 -2 -1 -1 -1 -1 -1 -1 -1 -1 -2 -3 -3 -3 -3 -3 -4 -4 -5 -5 -5 -4 -3 -3 -6 -5 -6 -5 -5 -5 -5 -4 -3 -3
-2 -3 -3 -3 -3 -2 -2 -2 -1 -1 -1 -1 -2 -2 -2 -3 -4 -4 -3 -4 -4 -4 -5 -6 -6 -5 -4 -5 -5 -6 -6 -6 -5 -4 -5 -6 -5 -3
-4 -3 -4 -4 -3 -3 -3 -3 -2 -2 -2 -2 -3 -3 -3 -4 -3 -4 -3 -4 -4 -5 -7 -7 -7 -11 -11 -9 -5 -6 -5 -5 -5 -5 -5 -6 -5 -4
-4 -4 -4 -4 -4 -4 -4 -3 -3 -2 -2 -2 -3 -3 -4 -3 -4 -4 -4 -4 -5 -7 -8 -7 -7 -7 -13 -11 -10 -5 -6 -5 -5 -6 -6 -5 -5 -5
-5 -4 -5 -5 -5 -4 -5 -4 -4 -3 -2 -3 -4 -4 -4 -4 -4 -4 -4 -4 -5 -7 -10 -10 -7 -7 -6 -7 -8 -7 -4 -4 -5 -6 -6 -6 -5 -5
-5 -5 -5 -5 -5 -5 -5 -5 -4 -3 -3 -4 -4 -4 -4 -4 -4 -4 -4 -5 -6 -7 -8 -8 -7 -7 -7 -10 -12 -11 -7 -4 -4 -4 -5 -5 -5 -7
-6 -6 -6 -6 -5 -6 -6 -5 -5 -3 -3 -4 -4 -4 -4 -4 -4 -4 -5 -6 -6 -7 -6 -7 -7 -7 -8 -8 -9 -10 -7 -7 -5 -5 -3 -4 -4 -4
Height
687 682 679 674 670 665 661 660 655 643 634 633 633 632 628 626 622 621 623 621 619 622 622 624 627 630 631 633 635 637 642 645 650 654 658 661 664 667
682 677 672 668 663 659 655 652 649 644 629 628 622 621 620 616 613 612 610 611 609 610 610 611 613 616 618 621 624 628 631 635 642 646 649 653 655 658
680 675 668 663 657 654 650 645 639 636 629 612 617 613 609 608 605 603 601 599 597 597 599 599 600 602 606 608 612 616 620 625 632 637 641 644 648 652
676 671 664 660 655 650 645 641 636 630 625 614 604 603 602 598 593 590 587 585 585 586 586 588 587 589 593 596 599 603 609 615 622 629 633 638 642 647
672 667 662 657 652 648 642 635 631 624 618 611 598 596 592 590 584 580 579 577 573 572 572 574 575 577 582 584 589 593 597 602 614 618 623 628 635 641
668 664 659 655 650 644 640 632 625 619 612 604 595 588 585 580 576 573 569 567 566 566 568 566 563 565 571 574 576 584 588 594 605 609 616 619 625 635
664 659 654 649 646 642 637 628 623 617 609 602 592 585 576 572 571 565 560 558 552 556 555 556 559 557 557 565 564 569 582 587 597 603 613 615 620 628
660 655 649 645 640 635 630 626 622 616 605 600 591 581 574 570 565 560 555 550 543 542 541 541 547 548 549 555 555 559 570 585 588 598 609 609 616 621
659 653 646 641 636 630 621 617 612 609 605 598 588 578 571 566 560 552 547 544 534 532 532 536 537 542 542 548 551 560 566 576 583 592 599 605 610 615
657 650 643 637 634 628 619 611 604 598 593 588 581 571 567 559 555 549 542 535 530 523 523 528 532 536 538 541 547 556 563 572 578 585 593 599 603 608
653 646 640 634 629 625 618 608 599 587 581 575 567 559 554 549 545 540 532 528 525 523 519 520 530 533 536 539 545 553 561 568 575 581 588 592 597 602
648 642 636 630 623 618 613 604 593 583 574 563 556 548 542 535 531 529 523 515 513 517 512 517 525 528 537 538 543 550 558 567 573 578 582 586 591 596
644 637 631 624 616 610 603 597 589 581 569 562 551 540 533 527 522 518 513 507 504 504 503 507 517 523 526 535 542 550 557 563 567 572 576 581 587 591
640 633 625 618 609 601 594 589 583 576 566 556 546 537 529 521 516 512 508 503 500 500 503 505 510 514 524 535 542 550 554 559 564 568 572 577 581 586
636 629 621 612 603 596 590 584 576 569 561 551 542 534 527 520 516 513 507 504 503 503 504 504 506 515 522 530 539 545 551 556 561 565 568 571 575 578
631 622 615 608 602 595 586 579 572 565 556 547 538 531 524 520 517 513 510 508 506 509 508 510 514 521 528 532 536 545 547 552 557 561 564 568 571 573
627 619 612 606 597 589 581 575 567 559 550 543 535 528 523 520 517 515 513 511 512 514 517 520 523 527 530 533 539 542 546 550 555 558 562 564 566 568
626 618 612 605 596 587 579 570 563 554 546 539 532 526 521 519 517 516 516 516 517 519 522 526 528 529 533 536 539 542 547 550 553 556 558 560 561 563
626 618 611 603 595 587 579 569 559 550 543 536 529 524 519 518 516 517 517 519 520 523 526 528 530 532 540 544 540 543 545 549 552 552 553 555 557 558
624 616 609 602 594 586 577 568 558 547 540 533 527 522 519 517 517 518 519 521 524 528 530 532 533 534 540 544 544 543 545 546 545 547 549 551 551 552
620 613 607 600 592 583 576 566 556 545 537 531 526 522 519 519 518 519 521 523 526 529 533 534 536 538 539 541 542 540 540 541 541 543 545 548 548 548
618 611 604 597 589 582 572 563 552 543 535 530 526 523 520 520 521 522 524 528 530 531 534 537 536 538 540 539 543 543 540 538 537 537 538 540 542 545
615 609 601 594 587 578 569 560 551 542 536 531 528 526 525 525 526 527 530 532 533 533 535 537 538 538 538 540 540 538 537 535 534 533 532 533 535 541
Wind_Speed
31 30 28 27 28 28 28 28 15 17 17 22 24 33 36 37 42 42 41 45 47 50 47 49 49 50 47 46 44 44 39 36 33 29 26 23 21 20
29 30 31 28 28 26 27 28 28 18 17 26 30 31 34 35 41 41 43 42 48 48 49 48 48 51 51 49 46 44 40 36 31 28 26 24 22 21
29 30 30 29 27 27 26 25 26 26 14 29 30 34 33 36 41 43 43 45 48 49 48 49 51 48 48 48 47 46 43 36 30 28 27 24 22 21
29 29 28 27 27 27 26 27 28 29 25 19 32 29 32 34 38 38 45 49 46 48 48 50 50 48 47 50 47 45 41 32 29 27 25 22 21 23
31 28 26 25 26 28 28 27 29 31 30 27 24 31 29 30 31 37 35 35 41 50 51 51 46 48 48 46 45 48 40 35 31 28 24 23 22 24
26 22 23 24 26 28 29 27 28 30 29 27 25 27 27 29 27 22 20 31 34 30 38 40 38 41 42 43 43 39 35 31 28 27 25 24 24 23
25 24 23 28 27 25 30 32 31 29 26 22 14 21 19 16 12 20 20 22 25 34 30 31 30 35 42 43 39 38 32 31 28 24 25 24 23 23
27 29 29 29 24 33 32 30 32 32 27 20 19 14 21 25 25 22 23 10 8 24 24 30 29 28 30 34 40 38 33 26 24 23 27 23 24 24
28 31 34 29 30 38 35 34 35 32 30 31 27 27 27 31 31 25 21 21 14 15 22 12 27 22 29 32 32 30 26 25 25 27 25 26 25 22
27 30 31 27 31 34 36 38 38 39 35 32 32 38 36 37 34 34 32 28 14 15 22 5 17 16 24 29 28 25 23 25 26 26 28 25 22 21
32 32 31 32 30 34 36 35 40 42 40 37 36 40 42 42 41 36 23 9 5 5 22 9 8 7 15 22 27 23 24 24 27 27 26 23 21 20
30 30 29 33 37 40 38 36 33 35 38 41 38 36 35 35 33 29 28 10 5 2 16 9 6 8 3 6 22 22 22 24 26 25 24 22 21 21
28 28 30 36 41 43 39 34 28 41 39 33 33 30 26 27 30 25 20 19 6 2 14 18 7 6 5 3 7 21 25 24 22 22 21 20 21 22
29 30 33 40 44 39 32 31 36 37 30 29 27 23 23 22 22 14 8 5 7 8 25 15 8 8 5 3 3 12 17 19 21 22 21 20 17 19
30 34 38 37 32 30 31 35 33 28 26 24 21 23 23 20 9 1 6 14 20 20 17 11 21 21 12 4 4 7 9 12 17 19 18 19 22 22
31 33 32 31 31 31 31 29 26 27 26 26 22 27 24 8 3 2 5 11 15 17 19 18 16 14 8 13 9 8 11 5 15 16 15 15 16 18
38 27 26 27 27 27 28 28 29 28 27 25 24 22 15 4 3 7 6 5 5 4 11 14 11 11 10 11 6 10 10 6 11 15 10 11 15 17
29 22 22 25 24 27 27 29 31 29 28 28 24 19 11 6 6 5 6 7 5 8 9 6 7 5 3 2 3 9 8 7 9 11 13 10 14 15
23 21 22 25 26 28 29 28 31 31 29 24 21 18 10 8 6 6 6 6 6 8 7 7 4 3 3 2 2 7 6 8 9 8 10 14 8 9
21 22 25 27 28 28 29 31 33 30 27 23 18 13 5 3 6 6 5 6 8 5 5 7 5 4 3 3 2 4 15 13 9 9 8 11 14 12
24 26 27 28 29 27 33 31 33 28 29 21 15 7 1 6 6 7 8 10 9 4 2 2 6 3 3 2 1 3 4 7 12 14 6 6 5 3
25 27 30 29 28 32 32 32 32 28 25 18 13 4 2 5 6 8 8 7 6 6 6 8 5 1 1 1 2 2 8 11 9 12 17 16 7 3
27 28 30 30 30 33 32 31 31 27 22 16 8 2 3 7 9 10 11 10 10 10 6 4 1 2 2 3 3 4 7 12 5 6 2 10 19 21
Wind_Direction
315 310 302 299 294 286 276 270 272 285 281 274 265 256 256 251 254 259 255 266 265 266 265 263 253 248 245 244 243 238 229 217 217 218 219 220 227 238
313 312 308 305 302 296 288 283 277 276 283 279 276 271 263 261 264 258 257 261 262 263 264 264 258 251 250 244 244 236 215 212 213 215 216 221 227 233
322 316 309 311 307 304 300 294 289 286 282 291 284 281 268 263 266 263 261 258 256 258 259 261 260 255 249 244 237 226 216 209 210 213 218 220 225 226
316 311 309 316 315 312 308 302 299 295 289 288 292 286 278 270 259 252 252 253 249 254 258 260 257 254 244 240 229 224 215 206 208 213 214 218 222 227
309 307 314 320 314 312 310 308 305 299 293 289 289 291 285 278 270 260 253 252 248 252 255 254 254 250 241 228 218 219 207 206 206 208 208 209 219 225
314 315 316 318 314 311 307 307 307 299 299 295 286 287 289 290 275 263 259 256 252 248 257 253 246 234 228 214 213 205 199 198 205 203 208 207 208 222
313 315 317 323 319 318 320 314 313 314 307 305 298 297 279 285 280 275 253 258 242 245 247 251 234 220 210 209 199 195 199 195 200 204 213 209 209 218
323 326 322 321 314 324 318 313 313 309 304 307 300 294 293 289 287 286 280 254 253 237 229 242 220 212 202 200 197 190 192 196 196 207 215 210 212 216
323 324 320 316 323 325 319 315 316 311 304 300 296 291 296 298 301 287 287 275 257 249 202 227 204 204 201 196 190 188 190 196 198 208 210 212 211 214
322 323 315 317 323 320 318 316 314 311 305 295 284 287 286 288 288 288 286 285 260 224 188 198 191 200 193 191 185 191 192 200 205 205 209 207 211 216
323 318 313 314 315 319 317 312 307 305 305 296 288 287 284 283 282 280 274 248 236 235 189 144 175 138 168 185 192 191 198 206 206 205 206 209 211 213
315 315 315 316 316 316 314 306 300 308 314 313 308 298 289 284 281 281 269 250 222 199 202 148 146 147 153 164 188 193 203 210 206 209 209 212 208 214
321 319 317 315 314 312 308 302 311 313 310 312 306 306 302 295 295 291 282 264 213 222 196 167 150 131 75 118 149 197 204 204 205 211 210 204 208 218
319 317 313 315 310 309 314 314 315 317 308 309 304 307 306 301 295 286 285 264 224 213 168 173 136 136 119 111 141 173 183 191 194 191 194 200 210 218
320 319 321 318 320 319 319 319 319 316 309 305 306 307 304 297 274 210 110 114 111 107 112 120 150 139 131 117 144 151 144 190 195 201 203 212 218 220
326 326 322 324 322 317 315 317 317 315 310 308 305 304 299 281 247 191 109 98 87 67 79 87 117 129 119 125 123 138 149 148 187 192 201 213 216 217
329 326 326 327 320 319 318 320 321 320 319 316 310 302 294 256 194 177 131 57 76 90 86 91 99 99 105 141 112 149 166 174 169 164 196 223 227 226
332 321 325 321 318 320 321 319 321 323 319 317 311 299 283 222 191 162 117 102 118 113 105 116 114 85 86 103 182 139 162 183 193 201 209 215 250 245
327 320 322 321 319 320 323 317 319 319 317 314 311 305 276 211 187 130 119 115 104 100 114 120 114 85 68 79 42 206 162 187 188 208 229 231 227 245
327 323 321 321 319 318 322 319 315 319 320 319 315 307 270 200 134 137 133 112 112 112 110 92 94 88 116 173 187 189 217 239 245 255 252 264 270 267
326 323 321 319 317 317 319 314 315 318 323 322 321 311 238 146 112 115 126 128 128 88 83 71 89 115 124 170 2 314 306 257 253 246 215 216 246 254
320 319 321 320 318 322 317 315 317 321 323 320 321 313 129 132 115 111 117 100 90 107 115 123 111 127 197 110 206 234 281 303 294 265 239 229 200 190
316 318 319 318 321 320 317 316 318 319 322 319 321 12 94 90 112 112 104 111 110 86 66 58 26 329 313 246 255 260 281 298 299 319 287 227 228 226